Weather History for Pocatello, ID

Change the Weather History Date:

Sunday, January 6, 2013

  Actual Average Record
Temperature  
Mean Temperature 12 °F 24 °F  
Max Temperature 25 °F 32 °F 54 °F (1948)
Min Temperature -2 °F 16 °F -24 °F (1979)
Degree Days  
Heating Degree Days 53 41  
Month to date heating degree days 369 246  
Since 1 July heating degree days 2926 3231  
Cooling Degree Days 0 0  
Month to date cooling degree days 0 0  
Year to date cooling degree days 0 0  
Moisture  
Dew Point 5 °F    
Average Humidity 74    
Maximum Humidity 87    
Minimum Humidity 60    
Precipitation  
Precipitation 0.00 in 0.03 in 0.32 in (1989)
Month to date precipitation T 0.22  
Year to date precipitation T 0.22  
Snow  
Snow 0.00 in - - ()
Month to date snowfall T  
Since 1 July snowfall 19.6  
Snow Depth 5.00 in    
Sea Level Pressure  
Sea Level Pressure 30.32 in    
Wind  
Wind Speed 6 mph (NNE)    
Max Wind Speed 20 mph    
Max Gust Speed 24 mph    
Visibility 9 miles    
Events      
T = Trace of Precipitation, MM = Missing Value Source: NWS Daily Summary

Daily Weather History Graph

Daily Weather History Graph

Search for Another Location

Airport:

Trip Planner

Search our weather history database for the weather conditions in past years. The results will help you decide how hot, cold, wet, or windy it might be!

Date:

Astronomy

Jan. 06, 2013 Rise Set
Actual Time 8:01 AM MST 5:11 PM MST
Civil Twilight 7:29 AM MST 5:43 PM MST
Nautical Twilight 6:53 AM MST 6:19 PM MST
Astronomical Twilight 6:19 AM MST 6:53 PM MST
Moon 2:16 AM MST (1/6) 12:44 PM MST (1/6)
Length of Visible Light 10h 14m
Length of Day
9h 10m
Waning Crescent, 32% of the Moon is Illuminated
Jan 6
Waning Crescent
Jan 11
New
Jan 18
First Quarter
Jan 26
Full
Feb 3
Last Quarter

Hourly Weather History & Observations

Time (MST) Temp. Windchill Dew Point Humidity Pressure Visibility Wind Dir Wind Speed Gust Speed Precip Events Conditions
12:53 AM 1.0 °F -11.7 °F -2.9 °F 83% 30.44 in 6.0 mi North 6.9 mph - N/A   Clear
1:24 AM 1.4 °F -6.2 °F -2.2 °F 85% 30.22 in 6.0 mi NE 3.5 mph - N/A   Partly Cloudy
1:53 AM -0.9 °F - -5.1 °F 83% 30.43 in 6.0 mi Calm Calm - N/A   Clear
2:53 AM 9.0 °F -5.1 °F 1.9 °F 73% 30.37 in 8.0 mi East 10.4 mph - N/A   Clear
3:53 AM 5.0 °F - -0.0 °F 80% 30.38 in 7.0 mi Calm Calm - N/A   Clear
4:53 AM 3.0 °F -8.0 °F -0.9 °F 84% 30.39 in 7.0 mi NNE 5.8 mph - N/A   Clear
5:53 AM 7.0 °F -5.7 °F 1.9 °F 80% 30.38 in 8.0 mi NE 8.1 mph - N/A   Partly Cloudy
6:53 AM 9.0 °F -0.9 °F 3.0 °F 77% 30.38 in 10.0 mi East 5.8 mph - N/A   Clear
7:53 AM 12.0 °F 5.9 °F 5.0 °F 73% 30.38 in 9.0 mi North 3.5 mph - N/A   Mostly Cloudy
8:53 AM 10.0 °F -0.9 °F 5.0 °F 80% 30.37 in 8.0 mi ENE 6.9 mph - N/A   Overcast
9:53 AM 15.1 °F 2.5 °F 7.0 °F 70% 30.31 in 8.0 mi East 10.4 mph - N/A   Overcast
10:53 AM 19.0 °F 4.0 °F 10.9 °F 71% 30.29 in 9.0 mi WNW 17.3 mph - N/A   Scattered Clouds
11:02 AM 19.4 °F 9.5 °F 10.4 °F 68% 30.09 in 8.0 mi NW 8.1 mph - N/A   Clear
11:53 AM 21.0 °F 11.4 °F 12.0 °F 68% 30.30 in 10.0 mi NW 8.1 mph - N/A   Clear
12:53 PM 21.9 °F 15.7 °F 12.0 °F 66% 30.27 in 10.0 mi East 4.6 mph - N/A   Partly Cloudy
1:53 PM 24.1 °F - 12.9 °F 62% 30.26 in 10.0 mi Calm Calm - N/A   Clear
2:53 PM 21.9 °F - 12.9 °F 68% 30.22 in 10.0 mi Calm Calm - N/A   Clear
3:53 PM 25.0 °F - 12.9 °F 60% 30.24 in 10.0 mi Calm Calm - N/A   Clear
4:53 PM 19.0 °F 13.9 °F 10.9 °F 71% 30.28 in 10.0 mi SW 3.5 mph - N/A   Clear
5:53 PM 14.0 °F 6.5 °F 8.1 °F 77% 30.29 in 10.0 mi SW 4.6 mph - N/A   Clear
6:53 PM 12.0 °F 0.5 °F 6.1 °F 77% 30.32 in 10.0 mi SSW 8.1 mph - N/A   Clear
7:53 PM 10.0 °F -0.9 °F 5.0 °F 80% 30.34 in 10.0 mi South 6.9 mph - N/A   Clear
8:53 PM 8.1 °F 1.4 °F 5.0 °F 87% 30.35 in 10.0 mi South 3.5 mph - N/A   Clear
9:53 PM 3.0 °F -8.0 °F -0.9 °F 84% 30.35 in 10.0 mi WSW 5.8 mph - N/A   Clear
10:53 PM 1.9 °F -9.2 °F -2.9 °F 80% 30.35 in 10.0 mi West 5.8 mph - N/A   Clear
11:53 PM 3.0 °F -8.0 °F -0.9 °F 84% 30.36 in 10.0 mi South 5.8 mph - N/A   Clear